Year,Month,Day,Hour,Minute,Value (Times are PST for temperature in C)
2015,09,20,00,00,16.50
2015,09,20,00,01,16.50
2015,09,20,00,02,16.50
2015,09,20,00,03,16.50
2015,09,20,00,04,16.50
2015,09,20,00,05,16.50
2015,09,20,00,06,16.50
2015,09,20,00,07,16.50
2015,09,20,00,08,16.50
2015,09,20,00,09,16.50
2015,09,20,00,10,16.60
2015,09,20,00,11,16.60
2015,09,20,00,12,16.60
2015,09,20,00,13,16.60
2015,09,20,00,14,16.50
2015,09,20,00,15,16.50
2015,09,20,00,16,16.50
2015,09,20,00,17,16.50
2015,09,20,00,18,16.40
2015,09,20,00,19,16.40
2015,09,20,00,20,16.40
2015,09,20,00,21,16.40
2015,09,20,00,22,16.30
2015,09,20,00,23,16.30
2015,09,20,00,24,16.30
2015,09,20,00,25,16.20
2015,09,20,00,26,16.20
2015,09,20,00,27,16.10
2015,09,20,00,28,16.10
2015,09,20,00,29,16.10
2015,09,20,00,30,16.00
2015,09,20,00,31,16.00
2015,09,20,00,32,16.00
2015,09,20,00,33,15.90
2015,09,20,00,34,15.90
2015,09,20,00,35,15.90
2015,09,20,00,36,15.90
2015,09,20,00,37,15.90
2015,09,20,00,38,15.90
2015,09,20,00,39,15.90
2015,09,20,00,40,15.90
2015,09,20,00,41,15.80
2015,09,20,00,42,15.80
2015,09,20,00,43,15.80
2015,09,20,00,44,15.80
2015,09,20,00,45,15.90
2015,09,20,00,46,15.90
2015,09,20,00,47,15.90
2015,09,20,00,48,15.90
2015,09,20,00,49,15.90
2015,09,20,00,50,15.90
2015,09,20,00,51,15.90
2015,09,20,00,52,15.90
2015,09,20,00,53,15.90
2015,09,20,00,54,15.90
2015,09,20,00,55,15.90
2015,09,20,00,56,15.90
2015,09,20,00,57,15.90
2015,09,20,00,58,15.90
2015,09,20,00,59,15.90
2015,09,20,01,00,15.90
2015,09,20,01,01,15.90
2015,09,20,01,02,15.90
2015,09,20,01,03,15.90
2015,09,20,01,04,15.90
2015,09,20,01,05,15.90
2015,09,20,01,06,15.90
2015,09,20,01,07,16.00
2015,09,20,01,08,16.00
2015,09,20,01,09,16.00
2015,09,20,01,10,16.00
2015,09,20,01,11,16.10
2015,09,20,01,12,16.10
2015,09,20,01,13,16.10
2015,09,20,01,14,16.10
2015,09,20,01,15,16.20
2015,09,20,01,16,16.20
2015,09,20,01,17,16.20
2015,09,20,01,18,16.20
2015,09,20,01,19,16.20
2015,09,20,01,20,16.30
2015,09,20,01,21,16.30
2015,09,20,01,22,16.30
2015,09,20,01,23,16.30
2015,09,20,01,24,16.30
2015,09,20,01,25,16.30
2015,09,20,01,26,16.30
2015,09,20,01,27,16.30
2015,09,20,01,28,16.30
2015,09,20,01,29,16.30
2015,09,20,01,30,16.30
2015,09,20,01,31,16.40
2015,09,20,01,32,16.30
2015,09,20,01,33,16.30
2015,09,20,01,34,16.30
2015,09,20,01,35,16.30
2015,09,20,01,36,16.30
2015,09,20,01,37,16.30
2015,09,20,01,38,16.30
2015,09,20,01,39,16.30
2015,09,20,01,40,16.20
2015,09,20,01,41,16.20
2015,09,20,01,42,16.20
2015,09,20,01,43,16.20
2015,09,20,01,44,16.10
2015,09,20,01,45,16.10
2015,09,20,01,46,16.00
2015,09,20,01,47,16.00
2015,09,20,01,48,15.90
2015,09,20,01,49,15.90
2015,09,20,01,50,15.90
2015,09,20,01,51,15.90
2015,09,20,01,52,15.80
2015,09,20,01,53,15.80
2015,09,20,01,54,15.80
2015,09,20,01,55,15.70
2015,09,20,01,56,15.70
2015,09,20,01,57,15.70
2015,09,20,01,58,15.70
2015,09,20,01,59,15.60
2015,09,20,02,00,15.60
2015,09,20,02,01,15.60
2015,09,20,02,02,15.50
2015,09,20,02,03,15.50
2015,09,20,02,04,15.40
2015,09,20,02,05,15.40
2015,09,20,02,06,15.40
2015,09,20,02,07,15.30
2015,09,20,02,08,15.30
2015,09,20,02,09,15.30
2015,09,20,02,10,15.20
2015,09,20,02,11,15.20
2015,09,20,02,12,15.10
2015,09,20,02,13,15.10
2015,09,20,02,14,15.00
2015,09,20,02,15,15.00
2015,09,20,02,16,15.00
2015,09,20,02,17,14.90
2015,09,20,02,18,14.90
2015,09,20,02,19,14.90
2015,09,20,02,20,14.90
2015,09,20,02,21,14.90
2015,09,20,02,22,14.90
2015,09,20,02,23,14.80
2015,09,20,02,24,14.80
2015,09,20,02,25,14.80
2015,09,20,02,26,14.80
2015,09,20,02,27,14.80
2015,09,20,02,28,14.80
2015,09,20,02,29,14.70
2015,09,20,02,30,14.70
2015,09,20,02,31,14.70
2015,09,20,02,32,14.70
2015,09,20,02,33,14.70
2015,09,20,02,34,14.60
2015,09,20,02,35,14.60
2015,09,20,02,36,14.60
2015,09,20,02,37,14.60
2015,09,20,02,38,14.60
2015,09,20,02,39,14.60
2015,09,20,02,40,14.60
2015,09,20,02,41,14.60
2015,09,20,02,42,14.60
2015,09,20,02,43,14.60
2015,09,20,02,44,14.60
2015,09,20,02,45,14.60
2015,09,20,02,46,14.60
2015,09,20,02,47,14.60
2015,09,20,02,48,14.60
2015,09,20,02,49,14.60
2015,09,20,02,50,14.60
2015,09,20,02,51,14.60
2015,09,20,02,52,14.60
2015,09,20,02,53,14.60
2015,09,20,02,54,14.60
2015,09,20,02,55,14.60
2015,09,20,02,56,14.60
2015,09,20,02,57,14.60
2015,09,20,02,58,14.60
2015,09,20,02,59,14.60
2015,09,20,03,00,14.60
2015,09,20,03,01,14.60
2015,09,20,03,02,14.60
2015,09,20,03,03,14.60
2015,09,20,03,04,14.60
2015,09,20,03,05,14.70
2015,09,20,03,06,14.70
2015,09,20,03,07,14.70
2015,09,20,03,08,14.70
2015,09,20,03,09,14.70
2015,09,20,03,10,14.70
2015,09,20,03,11,14.60
2015,09,20,03,12,14.60
2015,09,20,03,13,14.60
2015,09,20,03,14,14.60
2015,09,20,03,15,14.50
2015,09,20,03,16,14.50
2015,09,20,03,17,14.50
2015,09,20,03,18,14.50
2015,09,20,03,19,14.50
2015,09,20,03,20,14.50
2015,09,20,03,21,14.50
2015,09,20,03,22,14.50
2015,09,20,03,23,14.50
2015,09,20,03,24,14.50
2015,09,20,03,25,14.50
2015,09,20,03,26,14.50
2015,09,20,03,27,14.50
2015,09,20,03,28,14.50
2015,09,20,03,29,14.50
2015,09,20,03,30,14.60
2015,09,20,03,31,14.60
2015,09,20,03,32,14.60
2015,09,20,03,33,14.60
2015,09,20,03,34,14.60
2015,09,20,03,35,14.60
2015,09,20,03,36,14.60
2015,09,20,03,37,14.60
2015,09,20,03,38,14.70
2015,09,20,03,39,14.70
2015,09,20,03,40,14.70
2015,09,20,03,41,14.70
2015,09,20,03,42,14.70
2015,09,20,03,43,14.70
2015,09,20,03,44,14.80
2015,09,20,03,45,14.80
2015,09,20,03,46,14.80
2015,09,20,03,47,14.80
2015,09,20,03,48,14.80
2015,09,20,03,49,14.80
2015,09,20,03,50,14.80
2015,09,20,03,51,14.80
2015,09,20,03,52,14.80
2015,09,20,03,53,14.80
2015,09,20,03,54,14.90
2015,09,20,03,55,14.90
2015,09,20,03,56,14.90
2015,09,20,03,57,14.90
2015,09,20,03,58,14.90
2015,09,20,03,59,14.90
2015,09,20,04,00,14.90
2015,09,20,04,01,14.90
2015,09,20,04,02,14.90
2015,09,20,04,03,14.90
2015,09,20,04,04,14.90
2015,09,20,04,05,14.90
2015,09,20,04,06,14.90
2015,09,20,04,07,14.90
2015,09,20,04,08,14.90
2015,09,20,04,09,14.90
2015,09,20,04,10,14.90
2015,09,20,04,11,15.00
2015,09,20,04,12,14.90
2015,09,20,04,13,15.00
2015,09,20,04,14,15.00
2015,09,20,04,15,15.00
2015,09,20,04,16,15.00
2015,09,20,04,17,15.00
2015,09,20,04,18,15.00
2015,09,20,04,19,15.00
2015,09,20,04,20,15.00
2015,09,20,04,21,15.00
2015,09,20,04,22,15.00
2015,09,20,04,23,15.00
2015,09,20,04,24,15.10
2015,09,20,04,25,15.10
2015,09,20,04,26,15.10
2015,09,20,04,27,15.10
2015,09,20,04,28,15.10
2015,09,20,04,29,15.10
2015,09,20,04,30,15.10
2015,09,20,04,31,15.20
2015,09,20,04,32,15.20
2015,09,20,04,33,15.20
2015,09,20,04,34,15.20
2015,09,20,04,35,15.20
2015,09,20,04,36,15.20
2015,09,20,04,37,15.20
2015,09,20,04,38,15.20
2015,09,20,04,39,15.20
2015,09,20,04,40,15.20
2015,09,20,04,41,15.20
2015,09,20,04,42,15.20
2015,09,20,04,43,15.20
2015,09,20,04,44,15.20
2015,09,20,04,45,15.20
2015,09,20,04,46,15.20
2015,09,20,04,47,15.10
2015,09,20,04,48,15.10
2015,09,20,04,49,15.10
2015,09,20,04,50,15.10
2015,09,20,04,51,15.10
2015,09,20,04,52,15.10
2015,09,20,04,53,15.10
2015,09,20,04,54,15.10
2015,09,20,04,55,15.10
2015,09,20,04,56,15.10
2015,09,20,04,57,15.10
2015,09,20,04,58,15.10
2015,09,20,04,59,15.10
2015,09,20,05,00,15.10
2015,09,20,05,01,15.10
2015,09,20,05,02,15.10
2015,09,20,05,03,15.10
2015,09,20,05,04,15.10
2015,09,20,05,05,15.10
2015,09,20,05,06,15.10
2015,09,20,05,07,15.10
2015,09,20,05,08,15.10
2015,09,20,05,09,15.10
2015,09,20,05,10,15.10
2015,09,20,05,11,15.10
2015,09,20,05,12,15.10
2015,09,20,05,13,15.10
2015,09,20,05,14,15.10
2015,09,20,05,15,15.10
2015,09,20,05,16,15.10
2015,09,20,05,17,15.10
2015,09,20,05,18,15.20
2015,09,20,05,19,15.20
2015,09,20,05,20,15.20
2015,09,20,05,21,15.20
2015,09,20,05,22,15.20
2015,09,20,05,23,15.20
2015,09,20,05,24,15.20
2015,09,20,05,25,15.20
2015,09,20,05,26,15.20
2015,09,20,05,27,15.20
2015,09,20,05,28,15.20
2015,09,20,05,29,15.20
2015,09,20,05,30,15.20
2015,09,20,05,31,15.20
2015,09,20,05,32,15.10
2015,09,20,05,33,15.10
2015,09,20,05,34,15.10
2015,09,20,05,35,15.10
2015,09,20,05,36,15.10
2015,09,20,05,37,15.10
2015,09,20,05,38,15.10
2015,09,20,05,39,15.10
2015,09,20,05,40,15.10
2015,09,20,05,41,15.10
2015,09,20,05,42,15.10
2015,09,20,05,43,15.10
2015,09,20,05,44,15.10
2015,09,20,05,45,15.10
2015,09,20,05,46,15.10
2015,09,20,05,47,15.10
2015,09,20,05,48,15.00
2015,09,20,05,49,15.00
2015,09,20,05,50,15.00
2015,09,20,05,51,15.00
2015,09,20,05,52,15.00
2015,09,20,05,53,15.00
2015,09,20,05,54,15.00
2015,09,20,05,55,15.00
2015,09,20,05,56,15.00
2015,09,20,05,57,15.00
2015,09,20,05,58,15.00
2015,09,20,05,59,15.00
2015,09,20,06,00,15.00
2015,09,20,06,01,15.00
2015,09,20,06,02,15.00
2015,09,20,06,03,15.00
2015,09,20,06,04,15.00
2015,09,20,06,05,15.00
2015,09,20,06,06,15.00
2015,09,20,06,07,15.00
2015,09,20,06,08,15.00
2015,09,20,06,09,15.00
2015,09,20,06,10,14.90
2015,09,20,06,11,14.90
2015,09,20,06,12,14.90
2015,09,20,06,13,14.90
2015,09,20,06,14,14.90
2015,09,20,06,15,14.90
2015,09,20,06,16,14.90
2015,09,20,06,17,14.90
2015,09,20,06,18,14.90
2015,09,20,06,19,14.90
2015,09,20,06,20,14.90
2015,09,20,06,21,14.90
2015,09,20,06,22,14.90
2015,09,20,06,23,14.90
2015,09,20,06,24,14.90
2015,09,20,06,25,14.90
2015,09,20,06,26,14.90
2015,09,20,06,27,14.90
2015,09,20,06,28,14.90
2015,09,20,06,29,14.90
2015,09,20,06,30,14.90
2015,09,20,06,31,14.90
2015,09,20,06,32,14.90
2015,09,20,06,33,14.90
2015,09,20,06,34,14.90
2015,09,20,06,35,14.90
2015,09,20,06,36,14.90
2015,09,20,06,37,14.90
2015,09,20,06,38,14.90
2015,09,20,06,39,14.90
2015,09,20,06,40,14.90
2015,09,20,06,41,14.90
2015,09,20,06,42,14.90
2015,09,20,06,43,15.00
2015,09,20,06,44,14.90
2015,09,20,06,45,15.00
2015,09,20,06,46,15.00
2015,09,20,06,47,15.00
2015,09,20,06,48,15.00
2015,09,20,06,49,15.00
2015,09,20,06,50,15.00
2015,09,20,06,51,15.00
2015,09,20,06,52,15.00
2015,09,20,06,53,15.00
2015,09,20,06,54,15.00
2015,09,20,06,55,15.00
2015,09,20,06,56,15.00
2015,09,20,06,57,15.00
2015,09,20,06,58,15.00
2015,09,20,06,59,15.00
2015,09,20,07,00,15.00
2015,09,20,07,01,15.00
2015,09,20,07,02,15.00
2015,09,20,07,03,15.00
2015,09,20,07,04,15.00
2015,09,20,07,05,15.00
2015,09,20,07,06,15.00
2015,09,20,07,07,15.00
2015,09,20,07,08,15.00
2015,09,20,07,09,15.00
2015,09,20,07,10,15.00
2015,09,20,07,11,15.00
2015,09,20,07,12,15.00
2015,09,20,07,13,15.10
2015,09,20,07,14,15.10
2015,09,20,07,15,15.00
2015,09,20,07,16,15.10
2015,09,20,07,17,15.00
2015,09,20,07,18,15.00
2015,09,20,07,19,15.00
2015,09,20,07,20,15.00
2015,09,20,07,21,15.00
2015,09,20,07,22,15.00
2015,09,20,07,23,15.00
2015,09,20,07,24,15.00
2015,09,20,07,25,15.00
2015,09,20,07,26,15.00
2015,09,20,07,27,15.00
2015,09,20,07,28,15.00
2015,09,20,07,29,15.00
2015,09,20,07,30,15.00
2015,09,20,07,31,15.00
2015,09,20,07,32,15.00
2015,09,20,07,33,14.90
2015,09,20,07,34,14.90
2015,09,20,07,35,14.90
2015,09,20,07,36,14.90
2015,09,20,07,37,14.90
2015,09,20,07,38,14.90
2015,09,20,07,39,14.90
2015,09,20,07,40,14.90
2015,09,20,07,41,14.90
2015,09,20,07,42,15.00
2015,09,20,07,43,15.00
2015,09,20,07,44,15.00
2015,09,20,07,45,15.00
2015,09,20,07,46,15.00
2015,09,20,07,47,15.00
2015,09,20,07,48,15.00
2015,09,20,07,49,15.00
2015,09,20,07,50,15.00
2015,09,20,07,51,15.00
2015,09,20,07,52,15.00
2015,09,20,07,53,15.00
2015,09,20,07,54,15.10
2015,09,20,07,55,15.10
2015,09,20,07,56,15.10
2015,09,20,07,57,15.00
2015,09,20,07,58,15.00
2015,09,20,07,59,15.00
2015,09,20,08,00,15.00
2015,09,20,08,01,15.00
2015,09,20,08,02,15.00
2015,09,20,08,03,15.00
2015,09,20,08,04,15.00
2015,09,20,08,05,14.90
2015,09,20,08,06,14.90
2015,09,20,08,07,14.90
2015,09,20,08,08,14.90
2015,09,20,08,09,14.90
2015,09,20,08,10,14.90
2015,09,20,08,11,14.90
2015,09,20,08,12,14.90
2015,09,20,08,13,14.90
2015,09,20,08,14,14.90
2015,09,20,08,15,14.80
2015,09,20,08,16,14.80
2015,09,20,08,17,14.80
2015,09,20,08,18,14.80
2015,09,20,08,19,14.80
2015,09,20,08,20,14.80
2015,09,20,08,21,14.80
2015,09,20,08,22,14.80
2015,09,20,08,23,14.80
2015,09,20,08,24,14.80
2015,09,20,08,25,14.80
2015,09,20,08,26,14.80
2015,09,20,08,27,14.80
2015,09,20,08,28,14.80
2015,09,20,08,29,14.70
2015,09,20,08,30,14.70
2015,09,20,08,31,14.70
2015,09,20,08,32,14.70
2015,09,20,08,33,14.70
2015,09,20,08,34,14.70
2015,09,20,08,35,14.70
2015,09,20,08,36,14.70
2015,09,20,08,37,14.70
2015,09,20,08,38,14.70
2015,09,20,08,39,14.70
2015,09,20,08,40,14.70
2015,09,20,08,41,14.70
2015,09,20,08,42,14.70
2015,09,20,08,43,14.70
2015,09,20,08,44,14.70
2015,09,20,08,45,14.70
2015,09,20,08,46,14.70
2015,09,20,08,47,14.70
2015,09,20,08,48,14.70
2015,09,20,08,49,14.70
2015,09,20,08,50,14.70
2015,09,20,08,51,14.70
2015,09,20,08,52,14.70
2015,09,20,08,53,14.70
2015,09,20,08,54,14.70
2015,09,20,08,55,14.70
2015,09,20,08,56,14.70
2015,09,20,08,57,14.80
2015,09,20,08,58,14.80
2015,09,20,08,59,14.80
2015,09,20,09,00,14.80
2015,09,20,09,01,14.80
2015,09,20,09,02,14.80
2015,09,20,09,03,14.80
2015,09,20,09,04,14.80
2015,09,20,09,05,14.80
2015,09,20,09,06,14.80
2015,09,20,09,07,14.80
2015,09,20,09,08,14.80
2015,09,20,09,09,14.80
2015,09,20,09,10,14.80
2015,09,20,09,11,14.80
2015,09,20,09,12,14.80
2015,09,20,09,13,14.80
2015,09,20,09,14,14.80
2015,09,20,09,15,14.80
2015,09,20,09,16,14.80
2015,09,20,09,17,14.80
2015,09,20,09,18,14.80
2015,09,20,09,19,14.80
2015,09,20,09,20,14.80
2015,09,20,09,21,14.80
2015,09,20,09,22,14.90
2015,09,20,09,23,14.90
2015,09,20,09,24,14.90
2015,09,20,09,25,14.90
2015,09,20,09,26,14.90
2015,09,20,09,27,14.90
2015,09,20,09,28,14.90
2015,09,20,09,29,15.00
2015,09,20,09,30,15.00
2015,09,20,09,31,15.00
2015,09,20,09,32,15.00
2015,09,20,09,33,15.00
2015,09,20,09,34,15.00
2015,09,20,09,35,15.00
2015,09,20,09,36,15.00
2015,09,20,09,37,15.00
2015,09,20,09,38,15.00
2015,09,20,09,39,15.00
2015,09,20,09,40,15.00
2015,09,20,09,41,15.00
2015,09,20,09,42,15.00
2015,09,20,09,43,15.00
2015,09,20,09,44,15.00
2015,09,20,09,45,15.00
2015,09,20,09,46,15.00
2015,09,20,09,47,15.00
2015,09,20,09,48,15.00
2015,09,20,09,49,15.00
2015,09,20,09,50,15.10
2015,09,20,09,51,15.10
2015,09,20,09,52,15.10
2015,09,20,09,53,15.20
2015,09,20,09,54,15.20
2015,09,20,09,55,15.20
2015,09,20,09,56,15.30
2015,09,20,09,57,15.30
2015,09,20,09,58,15.30
2015,09,20,09,59,15.30
2015,09,20,10,00,15.30
2015,09,20,10,01,15.30
2015,09,20,10,02,15.30
2015,09,20,10,03,15.30
2015,09,20,10,04,15.40
2015,09,20,10,05,15.40
2015,09,20,10,06,15.40
2015,09,20,10,07,15.40
2015,09,20,10,08,15.40
2015,09,20,10,09,15.40
2015,09,20,10,10,15.40
2015,09,20,10,11,15.40
2015,09,20,10,12,15.40
2015,09,20,10,13,15.40
2015,09,20,10,14,15.40
2015,09,20,10,15,15.50
2015,09,20,10,16,15.50
2015,09,20,10,17,15.50
2015,09,20,10,18,15.60
2015,09,20,10,19,15.60
2015,09,20,10,20,15.60
2015,09,20,10,21,15.60
2015,09,20,10,22,15.60
2015,09,20,10,23,15.70
2015,09,20,10,24,15.70
2015,09,20,10,25,15.70
2015,09,20,10,26,15.70
2015,09,20,10,27,15.80
2015,09,20,10,28,15.80
2015,09,20,10,29,15.80
2015,09,20,10,30,15.80
2015,09,20,10,31,15.90
2015,09,20,10,32,15.90
2015,09,20,10,33,15.90
2015,09,20,10,34,15.90
2015,09,20,10,35,15.90
2015,09,20,10,36,16.00
2015,09,20,10,37,16.00
2015,09,20,10,38,16.00
2015,09,20,10,39,16.00
2015,09,20,10,40,16.00
2015,09,20,10,41,16.00
2015,09,20,10,42,16.10
2015,09,20,10,43,16.10
2015,09,20,10,44,16.10
2015,09,20,10,45,16.10
2015,09,20,10,46,16.10
2015,09,20,10,47,16.10
2015,09,20,10,48,16.10
2015,09,20,10,49,16.10
2015,09,20,10,50,16.10
2015,09,20,10,51,16.10
2015,09,20,10,52,16.10
2015,09,20,10,53,16.10
2015,09,20,10,54,16.10
2015,09,20,10,55,16.10
2015,09,20,10,56,16.10
2015,09,20,10,57,16.10
2015,09,20,10,58,16.10
2015,09,20,10,59,16.10
2015,09,20,11,00,16.10
2015,09,20,11,01,16.10
2015,09,20,11,02,16.10
2015,09,20,11,03,16.10
2015,09,20,11,04,16.10
2015,09,20,11,05,16.10
2015,09,20,11,06,16.20
2015,09,20,11,07,16.20
2015,09,20,11,08,16.20
2015,09,20,11,09,16.20
2015,09,20,11,10,16.20
2015,09,20,11,11,16.20
2015,09,20,11,12,16.20
2015,09,20,11,13,16.20
2015,09,20,11,14,16.20
2015,09,20,11,15,16.20
2015,09,20,11,16,16.20
2015,09,20,11,17,16.20
2015,09,20,11,18,16.20
2015,09,20,11,19,16.20
2015,09,20,11,20,16.20
2015,09,20,11,21,16.20
2015,09,20,11,22,16.20
2015,09,20,11,23,16.30
2015,09,20,11,24,16.30
2015,09,20,11,25,16.30
2015,09,20,11,26,16.30
2015,09,20,11,27,16.30
2015,09,20,11,28,16.30
2015,09,20,11,29,16.30
2015,09,20,11,30,16.40
2015,09,20,11,31,16.40
2015,09,20,11,32,16.40
2015,09,20,11,33,16.40
2015,09,20,11,34,16.40
2015,09,20,11,35,16.40
2015,09,20,11,36,16.40
2015,09,20,11,37,16.40
2015,09,20,11,38,16.40
2015,09,20,11,39,16.50
2015,09,20,11,40,16.50
2015,09,20,11,41,16.50
2015,09,20,11,42,16.50
2015,09,20,11,43,16.50
2015,09,20,11,44,16.60
2015,09,20,11,45,16.60
2015,09,20,11,46,16.60
2015,09,20,11,47,16.60
2015,09,20,11,48,16.60
2015,09,20,11,49,16.60
2015,09,20,11,50,16.70
2015,09,20,11,51,16.70
2015,09,20,11,52,16.70
2015,09,20,11,53,16.70
2015,09,20,11,54,16.70
2015,09,20,11,55,16.80
2015,09,20,11,56,16.80
2015,09,20,11,57,16.90
2015,09,20,11,58,16.90
2015,09,20,11,59,16.90
2015,09,20,12,00,17.00
2015,09,20,12,01,17.00
2015,09,20,12,02,17.00
2015,09,20,12,03,17.10
2015,09,20,12,04,17.10
2015,09,20,12,05,17.10
2015,09,20,12,06,17.20
2015,09,20,12,07,17.20
2015,09,20,12,08,17.20
2015,09,20,12,09,17.30
2015,09,20,12,10,17.30
2015,09,20,12,11,17.30
2015,09,20,12,12,17.40
2015,09,20,12,13,17.40
2015,09,20,12,14,17.40
2015,09,20,12,15,17.50
2015,09,20,12,16,17.50
2015,09,20,12,17,17.50
2015,09,20,12,18,17.50
2015,09,20,12,19,17.60
2015,09,20,12,20,17.60
2015,09,20,12,21,17.60
2015,09,20,12,22,17.60
2015,09,20,12,23,17.60
2015,09,20,12,24,17.60
2015,09,20,12,25,17.60
2015,09,20,12,26,17.70
2015,09,20,12,27,17.70
2015,09,20,12,28,17.80
2015,09,20,12,29,17.80
2015,09,20,12,30,17.80
2015,09,20,12,31,17.80
2015,09,20,12,32,17.90
2015,09,20,12,33,17.90
2015,09,20,12,34,18.00
2015,09,20,12,35,18.00
2015,09,20,12,36,18.00
2015,09,20,12,37,18.00
2015,09,20,12,38,18.00
2015,09,20,12,39,18.10
2015,09,20,12,40,18.10
2015,09,20,12,41,18.10
2015,09,20,12,42,18.10
2015,09,20,12,43,18.10
2015,09,20,12,44,18.10
2015,09,20,12,45,18.10
2015,09,20,12,46,18.10
2015,09,20,12,47,18.00
2015,09,20,12,48,18.00
2015,09,20,12,49,18.00
2015,09,20,12,50,18.00
2015,09,20,12,51,18.00
2015,09,20,12,52,18.00
2015,09,20,12,53,18.00
2015,09,20,12,54,18.00
2015,09,20,12,55,18.10
2015,09,20,12,56,18.10
2015,09,20,12,57,18.10
2015,09,20,12,58,18.10
2015,09,20,12,59,18.10
2015,09,20,13,00,18.20
2015,09,20,13,01,18.30
2015,09,20,13,02,18.30
2015,09,20,13,03,18.40
2015,09,20,13,04,18.50
2015,09,20,13,05,18.60
2015,09,20,13,06,18.70
2015,09,20,13,07,18.80
2015,09,20,13,08,18.80
2015,09,20,13,09,18.90
2015,09,20,13,10,18.90
2015,09,20,13,11,18.90
2015,09,20,13,12,19.00
2015,09,20,13,13,19.00
2015,09,20,13,14,19.10
2015,09,20,13,15,19.10
2015,09,20,13,16,19.20
2015,09,20,13,17,19.20
2015,09,20,13,18,19.20
2015,09,20,13,19,19.20
2015,09,20,13,20,19.30
2015,09,20,13,21,19.30
2015,09,20,13,22,19.30
2015,09,20,13,23,19.30
2015,09,20,13,24,19.40
2015,09,20,13,25,19.40
2015,09,20,13,26,19.40
2015,09,20,13,27,19.40
2015,09,20,13,28,19.40
2015,09,20,13,29,19.50
2015,09,20,13,30,19.50
2015,09,20,13,31,19.60
2015,09,20,13,32,19.60
2015,09,20,13,33,19.70
2015,09,20,13,34,19.70
2015,09,20,13,35,19.70
2015,09,20,13,36,19.80
2015,09,20,13,37,19.80
2015,09,20,13,38,19.80
2015,09,20,13,39,19.80
2015,09,20,13,40,19.90
2015,09,20,13,41,20.00
2015,09,20,13,42,20.10
2015,09,20,13,43,20.20
2015,09,20,13,44,20.20
2015,09,20,13,45,20.20
2015,09,20,13,46,20.20
2015,09,20,13,47,20.20
2015,09,20,13,48,20.20
2015,09,20,13,49,20.20
2015,09,20,13,50,20.20
2015,09,20,13,51,20.10
2015,09,20,13,52,20.10
2015,09,20,13,53,20.00
2015,09,20,13,54,20.00
2015,09,20,13,55,20.00
2015,09,20,13,56,20.00
2015,09,20,13,57,20.00
2015,09,20,13,58,20.10
2015,09,20,13,59,20.10
2015,09,20,14,00,20.20
2015,09,20,14,01,20.30
2015,09,20,14,02,20.30
2015,09,20,14,03,20.30
2015,09,20,14,04,20.30
2015,09,20,14,05,20.40
2015,09,20,14,06,20.50
2015,09,20,14,07,20.60
2015,09,20,14,08,20.70
2015,09,20,14,09,20.60
2015,09,20,14,10,20.60
2015,09,20,14,11,20.60
2015,09,20,14,12,20.60
2015,09,20,14,13,20.50
2015,09,20,14,14,20.40
2015,09,20,14,15,20.40
2015,09,20,14,16,20.50
2015,09,20,14,17,20.50
2015,09,20,14,18,20.50
2015,09,20,14,19,20.40
2015,09,20,14,20,20.40
2015,09,20,14,21,20.40
2015,09,20,14,22,20.40
2015,09,20,14,23,20.40
2015,09,20,14,24,20.40
2015,09,20,14,25,20.40
2015,09,20,14,26,20.40
2015,09,20,14,27,20.40
2015,09,20,14,28,20.50
2015,09,20,14,29,20.60
2015,09,20,14,30,20.60
2015,09,20,14,31,20.60
2015,09,20,14,32,20.60
2015,09,20,14,33,20.60
2015,09,20,14,34,20.60
2015,09,20,14,35,20.70
2015,09,20,14,36,20.70
2015,09,20,14,37,20.80
2015,09,20,14,38,20.90
2015,09,20,14,39,20.90
2015,09,20,14,40,21.00
2015,09,20,14,41,21.00
2015,09,20,14,42,20.90
2015,09,20,14,43,20.80
2015,09,20,14,44,20.80
2015,09,20,14,45,20.70
2015,09,20,14,46,20.60
2015,09,20,14,47,20.70
2015,09,20,14,48,20.70
2015,09,20,14,49,20.70
2015,09,20,14,50,20.80
2015,09,20,14,51,20.80
2015,09,20,14,52,20.70
2015,09,20,14,53,20.80
2015,09,20,14,54,20.90
2015,09,20,14,55,20.90
2015,09,20,14,56,20.80
2015,09,20,14,57,20.80
2015,09,20,14,58,20.90
2015,09,20,14,59,20.90
2015,09,20,15,00,20.90
2015,09,20,15,01,21.00
2015,09,20,15,02,21.10
2015,09,20,15,03,21.20
2015,09,20,15,04,21.30
2015,09,20,15,05,21.30
2015,09,20,15,06,21.20
2015,09,20,15,07,21.10
2015,09,20,15,08,21.10
2015,09,20,15,09,21.20
2015,09,20,15,10,21.20
2015,09,20,15,11,21.10
2015,09,20,15,12,21.20
2015,09,20,15,13,21.20
2015,09,20,15,14,21.20
2015,09,20,15,15,21.10
2015,09,20,15,16,21.10
2015,09,20,15,17,21.00
2015,09,20,15,18,20.90
2015,09,20,15,19,20.90
2015,09,20,15,20,20.90
2015,09,20,15,21,20.90
2015,09,20,15,22,20.90
2015,09,20,15,23,20.90
2015,09,20,15,24,20.90
2015,09,20,15,25,20.80
2015,09,20,15,26,20.80
2015,09,20,15,27,20.80
2015,09,20,15,28,20.70
2015,09,20,15,29,20.70
2015,09,20,15,30,20.70
2015,09,20,15,31,20.70
2015,09,20,15,32,20.60
2015,09,20,15,33,20.60
2015,09,20,15,34,20.50
2015,09,20,15,35,20.40
2015,09,20,15,36,20.30
2015,09,20,15,37,20.10
2015,09,20,15,38,20.10
2015,09,20,15,39,20.00
2015,09,20,15,40,19.90
2015,09,20,15,41,19.80
2015,09,20,15,42,19.80
2015,09,20,15,43,19.70
2015,09,20,15,44,19.60
2015,09,20,15,45,19.60
2015,09,20,15,46,19.60
2015,09,20,15,47,19.60
2015,09,20,15,48,19.70
2015,09,20,15,49,19.80
2015,09,20,15,50,19.80
2015,09,20,15,51,19.90
2015,09,20,15,52,19.90
2015,09,20,15,53,19.90
2015,09,20,15,54,19.90
2015,09,20,15,55,19.80
2015,09,20,15,56,19.80
2015,09,20,15,57,19.80
2015,09,20,15,58,19.80
2015,09,20,15,59,19.80
2015,09,20,16,00,19.80
2015,09,20,16,01,19.80
2015,09,20,16,02,19.80
2015,09,20,16,03,19.80
2015,09,20,16,04,19.80
2015,09,20,16,05,19.90
2015,09,20,16,06,19.90
2015,09,20,16,07,20.00
2015,09,20,16,08,20.10
2015,09,20,16,09,20.10
2015,09,20,16,10,20.10
2015,09,20,16,11,20.00
2015,09,20,16,12,19.90
2015,09,20,16,13,19.90
2015,09,20,16,14,19.90
2015,09,20,16,15,19.90
2015,09,20,16,16,19.90
2015,09,20,16,17,19.80
2015,09,20,16,18,19.80
2015,09,20,16,19,19.80
2015,09,20,16,20,19.60
2015,09,20,16,21,19.40
2015,09,20,16,22,19.30
2015,09,20,16,23,19.10
2015,09,20,16,24,19.00
2015,09,20,16,25,18.90
2015,09,20,16,26,18.80
2015,09,20,16,27,18.70
2015,09,20,16,28,18.70
2015,09,20,16,29,18.60
2015,09,20,16,30,18.50
2015,09,20,16,31,18.50
2015,09,20,16,32,18.40
2015,09,20,16,33,18.40
2015,09,20,16,34,18.40
2015,09,20,16,35,18.30
2015,09,20,16,36,18.30
2015,09,20,16,37,18.30
2015,09,20,16,38,18.30
2015,09,20,16,39,18.20
2015,09,20,16,40,18.20
2015,09,20,16,41,18.10
2015,09,20,16,42,18.10
2015,09,20,16,43,18.10
2015,09,20,16,44,18.00
2015,09,20,16,45,18.00
2015,09,20,16,46,18.00
2015,09,20,16,47,17.90
2015,09,20,16,48,17.90
2015,09,20,16,49,17.90
2015,09,20,16,50,17.80
2015,09,20,16,51,17.80
2015,09,20,16,52,17.80
2015,09,20,16,53,17.80
2015,09,20,16,54,17.80
2015,09,20,16,55,17.80
2015,09,20,16,56,17.80
2015,09,20,16,57,17.80
2015,09,20,16,58,17.80
2015,09,20,16,59,17.80
2015,09,20,17,00,17.80
2015,09,20,17,01,17.80
2015,09,20,17,02,17.80
2015,09,20,17,03,17.80
2015,09,20,17,04,17.80
2015,09,20,17,05,17.70
2015,09,20,17,06,17.70
2015,09,20,17,07,17.70
2015,09,20,17,08,17.70
2015,09,20,17,09,17.60
2015,09,20,17,10,17.60
2015,09,20,17,11,17.50
2015,09,20,17,12,17.50
2015,09,20,17,13,17.50
2015,09,20,17,14,17.40
2015,09,20,17,15,17.40
2015,09,20,17,16,17.40
2015,09,20,17,17,17.40
2015,09,20,17,18,17.40
2015,09,20,17,19,17.40